IU7LMH-13 Weather Reports


Display with metric or nautical units.
time (UTC)temp
F
wind
direction
speed
MPH
gust
MPH
rain 1hr
in
rain 24hr
in
rain mn
in
humidity
%
barometer
mb
20260509032137 58 292 3.0 4.0 0.00 0.61 0.00 85 1015.9
20260509031937 58 270 2.0 4.0 0.00 0.61 0.00 85 1015.9
20260509031738 58 270 3.0 4.0 0.00 0.61 0.00 85 1016.0
20260509031337 58 315 4.0 4.0 0.00 0.61 0.00 85 1015.7
20260509031138 58 270 3.0 4.0 0.00 0.62 0.00 85 1015.8
20260509030338 58 270 4.0 7.0 0.00 0.62 0.00 86 1015.7
20260509030137 58 292 2.0 4.0 0.00 0.62 0.00 86 1016.0
20260509025937 58 292 3.0 4.0 0.00 0.62 0.00 86 1015.9
20260509025738 58 292 3.0 4.0 0.00 0.62 0.00 86 1015.8
20260509025544 58 292 3.0 6.0 0.00 0.62 0.00 87 1015.7
20260509025339 58 292 3.0 4.0 0.00 0.62 0.00 87 1015.9
20260509025138 58 315 2.0 2.0 0.00 0.62 0.00 87 1015.7
20260509024936 58 315 2.0 2.0 0.00 0.62 0.00 87 1015.7
20260509024737 58 292 1.0 2.0 0.00 0.62 0.00 87 1015.6
20260509024544 58 315 2.0 4.0 0.00 0.62 0.00 87 1015.8
20260509024339 58 292 2.0 4.0 0.00 0.62 0.00 87 1015.6
20260509024138 58 292 2.0 2.0 0.00 0.62 0.00 87 1015.7
20260509023941 58 292 2.0 4.0 0.00 0.62 0.00 87 1015.8
20260509023737 58 292 2.0 2.0 0.00 0.62 0.00 87 1015.7
20260509023541 58 292 2.0 4.0 0.00 0.62 0.00 87 1015.8
20260509023339 58 315 2.0 4.0 0.00 0.62 0.00 88 1015.8
20260509023138 58 315 2.0 2.0 0.00 0.62 0.00 88 1015.7
20260509022937 58 292 4.0 4.0 0.00 0.62 0.00 88 1015.6
20260509022737 57 315 2.0 4.0 0.00 0.62 0.00 88 1015.6
20260509022338 57 315 3.0 4.0 0.00 0.62 0.00 88 1015.5
20260509022138 57 292 3.0 4.0 0.00 0.62 0.00 89 1015.6
20260509021738 57 315 2.0 4.0 0.00 0.62 0.00 89 1015.6
20260509021542 57 292 2.0 4.0 0.00 0.62 0.00 89 1015.8
20260509021339 57 292 2.0 4.0 0.00 0.62 0.00 89 1015.5
20260509021137 57 292 2.0 4.0 0.00 0.62 0.00 89 1015.5
20260509020941 57 292 2.0 2.0 0.00 0.62 0.00 89 1015.4
20260509020738 57 292 2.0 2.0 0.00 0.62 0.00 89 1015.6
20260509020543 57 292 1.0 2.0 0.00 0.62 0.00 89 1015.6
20260509020339 57 292 0.0 2.0 0.00 0.62 0.00 89 1015.5
20260509020138 57 292 1.0 2.0 0.00 0.62 0.00 89 1015.4
20260509015938 57 270 2.0 2.0 0.00 0.62 0.00 89 1015.6
20260509015738 57 292 2.0 2.0 0.00 0.62 0.00 89 1015.5
20260509015543 57 270 2.0 2.0 0.00 0.62 0.00 89 1015.7
20260509015138 57 292 2.0 4.0 0.00 0.62 0.00 89 1015.6
20260509014938 57 292 1.0 2.0 0.00 0.62 0.00 89 1015.6
20260509014738 57 270 2.0 2.0 0.00 1.07 0.00 89 1015.6
20260509014545 57 292 2.0 4.0 0.00 0.62 0.00 89 1015.6
20260509014136 57 270 2.0 4.0 0.00 0.62 0.00 89 1015.5
20260509013737 57 270 2.0 4.0 0.00 0.62 0.00 88 1015.6
20260509013542 57 270 2.0 2.0 0.00 0.62 0.00 88 1015.5
20260509013339 57 292 2.0 2.0 0.00 0.62 0.00 88 1015.5
20260509013138 57 248 0.0 0.0 0.00 0.62 0.00 88 1015.7
20260509012737 57 292 2.0 2.0 0.00 0.62 0.00 88 1015.5
20260509012545 57 292 1.0 2.0 0.00 0.62 0.00 88 1015.7
20260509012339 57 292 2.0 2.0 0.00 0.62 0.00 88 1015.6
20260509011938 57 292 2.0 4.0 0.00 0.62 0.00 87 1015.4
20260509011738 57 292 2.0 4.0 0.00 0.62 0.00 87 1015.4
20260509011546 58 292 2.0 4.0 0.00 0.62 0.00 87 1015.4
20260509011339 58 292 2.0 4.0 0.00 0.62 0.00 87 1015.5
20260509011138 58 292 2.0 4.0 0.00 0.62 0.00 87 1015.3
20260509010939 58 292 2.0 4.0 0.00 0.62 0.00 87 1015.5
20260509010737 58 292 2.0 2.0 0.00 0.62 0.00 86 1015.5
20260509010541 58 315 2.0 4.0 0.00 0.62 0.00 86 1015.5
20260509010338 58 292 2.0 4.0 0.00 0.62 0.00 86 1015.5
20260509010137 58 292 2.0 2.0 0.00 0.62 0.00 86 1015.5
20260509005939 58 292 2.0 2.0 0.00 0.62 0.00 86 1015.5
20260509005543 58 315 2.0 2.0 0.00 0.62 0.00 85 1015.6
20260509005339 59 292 2.0 4.0 0.00 0.62 0.00 85 1015.7
20260509004938 59 315 2.0 2.0 0.00 0.62 0.00 85 1015.5
20260509004739 59 315 2.0 4.0 0.00 0.62 0.00 85 1015.5
20260509004545 59 292 2.0 2.0 0.00 0.62 0.00 85 1015.6
20260509004338 59 292 2.0 2.0 0.00 0.62 0.00 85 1015.6
20260509004136 59 292 2.0 4.0 0.00 0.62 0.00 85 1015.5
20260509003939 59 292 2.0 2.0 0.00 0.62 0.00 85 1015.6
20260509003542 59 292 2.0 2.0 0.00 0.62 0.00 85 1015.6
20260509003338 59 292 2.0 2.0 0.00 0.62 0.00 85 1015.9
20260509003138 59 270 2.0 4.0 0.00 0.62 0.00 85 1015.6
20260509002937 59 292 2.0 4.0 0.00 0.62 0.00 86 1015.8
20260509002738 59 292 4.0 4.0 0.00 0.62 0.00 86 1015.6
20260509002544 59 292 3.0 4.0 0.00 0.62 0.00 86 1015.8
20260509002338 59 270 3.0 4.0 0.00 0.62 0.00 86 1015.8
20260509001937 59 292 2.0 4.0 0.00 0.62 0.00 86 1015.7
20260509001737 59 270 2.0 4.0 0.00 0.62 0.00 86 1015.7
20260509001338 59 292 2.0 4.0 0.00 0.62 0.00 86 1015.8
20260509001137 59 292 2.0 4.0 0.00 0.62 0.00 86 1015.8
20260509000939 59 270 2.0 4.0 0.00 0.62 0.00 86 1015.8
20260509000737 59 270 2.0 2.0 0.00 0.62 0.00 86 1015.7
20260509000544 59 292 1.0 2.0 0.00 0.62 0.00 86 1015.8
20260509000340 59 292 1.0 2.0 0.00 0.62 0.00 86 1015.9
20260508235938 59 270 2.0 2.0 0.00 0.62 0.00 86 1015.8
20260508235739 59 270 2.0 2.0 0.00 0.62 0.00 86 1015.8
20260508235544 59 270 2.0 2.0 0.00 0.62 0.00 86 1015.7
20260508235339 59 292 2.0 2.0 0.00 0.62 0.00 86 1015.8
20260508235138 59 292 2.0 4.0 0.00 0.62 0.00 86 1015.5
20260508234938 59 270 2.0 4.0 0.00 0.62 0.00 86 1015.5
20260508234545 59 270 2.0 2.0 0.00 0.62 0.00 86 1015.8
20260508234340 59 292 2.0 2.0 0.00 0.62 0.00 86 1015.6
20260508234138 59 292 2.0 2.0 0.00 0.62 0.00 86 1015.7
20260508233541 59 315 1.0 2.0 0.00 0.62 0.00 86 1015.9
20260508233339 59 315 0.0 0.0 0.00 0.62 0.00 86 1015.7
20260508233136 59 315 0.0 2.0 0.00 0.62 0.00 86 1015.8
20260508232937 59 315 0.0 2.0 0.00 0.62 0.00 86 1015.7
20260508232737 59 315 1.0 2.0 0.00 0.62 0.00 86 1015.7
20260508232543 59 315 0.0 2.0 0.00 0.62 0.00 86 1015.7
20260508232137 59 315 2.0 2.0 0.00 0.62 0.00 85 1015.8
20260508231939 59 292 1.0 2.0 0.00 0.62 0.00 85 1015.7
20260508231739 59 292 2.0 2.0 0.00 0.62 0.00 85 1015.8
20260508231544 59 292 2.0 2.0 0.00 0.62 0.00 85 1015.9
20260508231138 59 315 1.0 2.0 0.00 0.62 0.00 85 1015.7
20260508230940 59 315 1.0 2.0 0.00 0.62 0.00 85 1015.7
20260508230738 59 315 2.0 2.0 0.00 0.62 0.00 85 1015.8
20260508230541 59 315 1.0 2.0 0.00 0.62 0.00 85 1015.8
20260508230338 59 315 2.0 4.0 0.00 0.62 0.00 85 1015.7
20260508230136 59 315 2.0 2.0 0.00 0.62 0.00 85 1015.6
20260508225937 59 315 1.0 2.0 0.00 0.62 0.00 85 1015.7
20260508225738 59 292 1.0 2.0 0.00 0.62 0.00 85 1015.7
20260508225543 59 315 2.0 2.0 0.00 0.62 0.00 85 1015.8
20260508225138 59 315 2.0 2.0 0.00 0.62 0.00 86 1015.8
20260508224938 59 315 2.0 4.0 0.00 0.62 0.00 86 1015.6
20260508224738 59 315 2.0 2.0 0.00 0.62 0.00 86 1015.6
20260508224544 59 292 2.0 2.0 0.00 0.62 0.00 86 1015.8
20260508224338 59 292 2.0 2.0 0.00 0.62 0.00 86 1015.7
20260508224137 59 292 1.0 2.0 0.00 0.62 0.00 86 1015.9
20260508223941 59 315 1.0 2.0 0.00 0.62 0.00 86 1015.9
20260508223739 59 292 2.0 2.0 0.00 0.62 0.00 86 1015.7
20260508223541 59 292 1.0 2.0 0.00 0.62 0.00 87 1015.9
20260508223339 59 292 2.0 2.0 0.00 0.62 0.00 87 1015.9
20260508223137 59 292 2.0 2.0 0.00 0.62 0.00 87 1016.1
20260508222938 59 315 2.0 2.0 0.00 0.62 0.00 87 1015.9
20260508222739 59 292 1.0 2.0 0.00 0.62 0.00 87 1015.9
20260508222544 59 292 2.0 2.0 0.00 0.62 0.00 87 1015.8
20260508222138 59 292 2.0 4.0 0.00 0.62 0.00 87 1015.6
20260508221937 59 292 2.0 2.0 0.00 0.62 0.00 87 1015.7
20260508221739 59 292 1.0 2.0 0.00 0.62 0.00 87 1015.8
20260508221543 59 315 2.0 4.0 0.00 0.62 0.00 87 1015.8
20260508221339 59 315 2.0 2.0 0.00 0.62 0.00 87 1015.9
20260508221137 59 292 1.0 2.0 0.00 0.62 0.00 87 1015.9
20260508220738 59 292 0.0 0.0 0.00 0.62 0.00 87 1015.9
20260508220540 59 315 1.0 2.0 0.00 0.62 0.00 87 1015.8
20260508220340 59 292 0.0 2.0 0.00 0.62 0.00 87 1015.8
20260508220139 59 292 1.0 2.0 0.00 0.62 0.62 87 1015.6
20260508215938 59 292 1.0 2.0 0.00 0.62 0.62 87 1015.8
20260508215739 59 292 1.0 2.0 0.00 0.62 0.62 87 1015.7
20260508215542 59 292 1.0 2.0 0.00 0.62 0.62 87 1015.9
20260508215339 59 292 0.0 2.0 0.00 0.62 0.62 86 1015.6
20260508215138 59 270 1.0 2.0 0.00 0.62 0.62 86 1015.8
20260508214938 59 270 1.0 2.0 0.00 0.62 0.62 86 1015.9
20260508214737 59 292 0.0 2.0 0.00 0.62 0.62 86 1015.8
20260508214543 59 292 1.0 2.0 0.00 0.62 0.62 86 1015.9
20260508214338 59 292 1.0 2.0 0.00 0.62 0.62 86 1015.9
20260508214138 59 292 1.0 2.0 0.00 0.62 0.62 86 1015.8
20260508213939 59 292 2.0 4.0 0.00 0.62 0.62 86 1015.7
20260508213737 59 270 2.0 2.0 0.00 0.62 0.62 86 1015.9
20260508213542 59 270 2.0 2.0 0.00 0.62 0.62 86 1015.9
20260508213337 59 270 1.0 2.0 0.00 0.62 0.62 86 1015.8
20260508213137 59 270 1.0 2.0 0.00 0.62 0.62 86 1015.8
20260508212937 59 315 0.0 0.0 0.00 0.62 0.62 86 1015.9
20260508212738 59 338 0.0 0.0 0.00 0.62 0.62 86 1015.7
20260508212543 59 338 0.0 0.0 0.00 0.62 0.62 86 1015.7
20260508212338 59 90 0.0 2.0 0.00 0.62 0.62 86 1015.6
20260508212138 59 112 0.0 0.0 0.00 0.62 0.62 86 1015.5
20260508211939 59 112 0.0 0.0 0.00 0.62 0.62 86 1015.7
20260508211738 59 90 0.0 0.0 0.00 0.62 0.62 86 1015.4
20260508211544 59 45 1.0 2.0 0.00 0.62 0.62 85 1015.6
20260508211338 59 338 0.0 0.0 0.00 0.62 0.62 85 1015.4
20260508211138 59 315 0.0 0.0 0.00 0.62 0.62 85 1015.6
20260508210940 59 292 1.0 2.0 0.00 0.62 0.62 85 1015.4
20260508210737 59 292 2.0 2.0 0.00 0.62 0.62 85 1015.5
20260508210339 59 292 2.0 4.0 0.00 0.62 0.62 85 1015.7
20260508205938 59 292 3.0 4.0 0.00 0.62 0.62 85 1015.5
20260508205738 59 292 3.0 6.0 0.00 0.62 0.62 85 1015.5
20260508205544 59 292 4.0 6.0 0.00 0.62 0.62 85 1015.5
20260508205339 59 292 4.0 6.0 0.00 0.62 0.62 86 1015.4
20260508205137 59 315 4.0 8.0 0.00 0.62 0.62 86 1015.4
20260508204739 59 292 3.0 4.0 0.00 0.62 0.62 86 1015.4
20260508204544 59 270 4.0 4.0 0.00 0.62 0.62 86 1015.4
20260508204338 59 292 3.0 4.0 0.00 0.62 0.62 86 1015.4
20260508203939 59 292 1.0 2.0 0.00 0.62 0.62 86 1015.6
20260508203737 59 315 2.0 4.0 0.00 0.62 0.62 86 1015.4
20260508203541 59 315 2.0 4.0 0.00 0.62 0.62 86 1015.5
20260508203339 59 292 2.0 4.0 0.00 0.62 0.62 86 1015.4
20260508203137 59 292 3.0 4.0 0.00 0.62 0.62 86 1015.5
20260508202937 59 315 3.0 6.0 0.00 0.62 0.62 86 1015.5
20260508202737 59 292 3.0 4.0 0.00 0.62 0.62 86 1015.3
20260508202544 59 292 3.0 6.0 0.00 0.62 0.62 86 1015.4
20260508202340 59 315 3.0 4.0 0.00 0.62 0.62 86 1015.2
20260508202139 59 338 3.0 4.0 0.00 0.62 0.62 86 1015.4
20260508201938 59 315 2.0 4.0 0.00 0.62 0.62 85 1015.4
20260508201738 59 315 3.0 4.0 0.00 0.62 0.62 85 1015.4
20260508201545 59 315 3.0 4.0 0.00 0.62 0.62 85 1015.4
20260508201340 59 315 2.0 4.0 0.00 0.62 0.62 85 1015.3
20260508201139 59 292 2.0 2.0 0.00 0.62 0.62 85 1015.3
20260508200738 60 292 2.0 4.0 0.00 0.62 0.62 85 1015.5
20260508200539 60 292 2.0 4.0 0.00 0.62 0.62 85 1015.4
20260508200340 60 315 2.0 4.0 0.00 0.62 0.62 85 1015.4
20260508200138 60 315 2.0 2.0 0.00 0.62 0.62 85 1015.6
20260508195940 60 315 2.0 4.0 0.00 0.62 0.62 85 1015.5
20260508195739 60 315 2.0 4.0 0.00 0.62 0.62 85 1015.5
20260508195544 60 315 2.0 4.0 0.00 0.62 0.62 84 1015.3
20260508195139 60 315 2.0 2.0 0.00 0.62 0.62 84 1015.4
20260508194937 60 292 2.0 2.0 0.00 0.62 0.62 84 1015.2
20260508194738 60 315 2.0 4.0 0.00 0.62 0.62 84 1015.3
20260508194543 60 292 2.0 4.0 0.00 0.62 0.62 84 1015.1
20260508194337 60 315 2.0 4.0 0.00 0.62 0.62 83 1015.2
20260508193940 60 292 3.0 4.0 0.00 0.62 0.62 83 1015.3
20260508193340 60 270 3.0 4.0 0.00 0.62 0.62 83 1015.3
20260508193138 60 270 3.0 4.0 0.00 0.62 0.62 83 1015.1
20260508192938 60 292 2.0 4.0 0.00 0.62 0.62 83 1015.2
20260508192740 60 292 2.0 4.0 0.00 0.62 0.62 83 1015.0
20260508192543 60 292 3.0 4.0 0.00 0.62 0.62 83 1015.1
20260508192339 61 292 2.0 2.0 0.00 0.62 0.62 83 1015.0
20260508192137 61 292 2.0 2.0 0.00 0.62 0.62 83 1015.1
20260508191737 61 292 1.0 2.0 0.00 0.62 0.62 82 1015.0
20260508191544 61 315 1.0 2.0 0.00 0.62 0.62 82 1014.9
20260508191137 61 315 1.0 2.0 0.00 0.62 0.62 82 1014.8
20260508190940 61 315 2.0 2.0 0.00 0.62 0.62 82 1014.8
20260508190739 61 315 2.0 2.0 0.00 0.62 0.62 81 1014.9
20260508190542 61 315 2.0 4.0 0.00 0.62 0.62 81 1014.7
20260508190338 61 292 2.0 4.0 0.00 0.62 0.62 81 1014.6
20260508190138 61 315 3.0 6.0 0.00 0.62 0.62 81 1014.5
20260508185737 61 315 4.0 8.0 0.00 0.62 0.62 82 1014.4
20260508185543 61 338 3.0 4.0 0.00 0.62 0.62 82 1014.5
20260508185339 61 315 2.0 4.0 0.00 0.62 0.62 82 1014.5
20260508185138 61 338 3.0 4.0 0.00 0.62 0.62 82 1014.3
20260508184737 62 315 3.0 4.0 0.00 0.62 0.62 81 1014.2
20260508184338 62 315 3.0 4.0 0.00 0.62 0.62 81 1014.3
20260508184137 62 315 2.0 4.0 0.00 0.62 0.62 81 1014.3
20260508183938 62 292 2.0 2.0 0.00 0.62 0.62 81 1014.2
20260508183738 62 292 3.0 4.0 0.00 0.62 0.62 81 1014.3
20260508183541 62 292 3.0 4.0 0.00 0.62 0.62 81 1014.1
20260508183138 62 292 2.0 4.0 0.00 0.62 0.62 81 1014.1
20260508182938 62 292 2.0 4.0 0.00 0.62 0.62 80 1014.1
20260508182737 62 292 3.0 4.0 0.00 0.62 0.62 80 1013.9
20260508182339 62 315 3.0 4.0 0.00 0.62 0.62 80 1013.9
20260508181738 62 292 3.0 4.0 0.00 0.62 0.62 80 1013.9
20260508181545 62 315 2.0 4.0 0.00 0.62 0.62 80 1013.8
20260508181338 62 292 3.0 4.0 0.00 0.62 0.62 80 1013.6
20260508180940 62 315 2.0 4.0 0.00 0.62 0.62 80 1013.5
20260508180739 62 315 3.0 7.0 0.00 0.62 0.62 79 1013.5
20260508180543 62 338 2.0 4.0 0.00 0.62 0.62 79 1013.5
20260508180345 62 338 2.0 4.0 0.00 0.62 0.62 79 1013.4
20260508180139 62 338 2.0 4.0 0.00 0.62 0.62 79 1013.5
20260508175938 62 315 3.0 4.0 0.00 0.62 0.62 79 1013.5
20260508175738 63 315 2.0 4.0 0.00 0.62 0.62 79 1013.4
20260508175544 63 315 2.0 4.0 0.00 0.62 0.62 79 1013.3
20260508175340 63 315 2.0 2.0 0.00 0.62 0.62 79 1013.5
20260508175138 63 315 2.0 4.0 0.00 0.62 0.62 79 1013.2
20260508174938 63 315 4.0 6.0 0.00 0.62 0.62 78 1013.5
20260508174738 63 292 4.0 7.0 0.00 0.62 0.62 78 1013.3
20260508174544 63 338 5.0 7.0 0.00 0.62 0.62 78 1013.3
20260508174137 63 315 4.0 7.0 0.00 0.62 0.62 78 1013.2
20260508173939 63 315 4.0 6.0 0.00 0.62 0.62 78 1013.2
20260508173738 63 315 4.0 6.0 0.00 0.62 0.62 78 1013.2
20260508173541 63 292 4.0 6.0 0.00 0.62 0.62 78 1013.2
20260508173336 63 315 4.0 7.0 0.00 0.62 0.62 78 1013.2
20260508172938 63 292 4.0 7.0 0.00 0.62 0.62 78 1013.3
20260508172737 63 338 4.0 6.0 0.00 0.62 0.62 78 1013.3
20260508172543 63 315 4.0 7.0 0.00 0.62 0.62 77 1013.3
20260508172337 63 292 4.0 9.0 0.00 0.62 0.62 78 1013.1
20260508172138 63 0 3.0 4.0 0.00 0.62 0.62 78 1013.3
20260508171938 63 315 3.0 4.0 0.00 0.62 0.62 77 1013.1
20260508171545 63 315 6.0 8.0 0.00 0.62 0.62 77 1013.2
20260508171338 63 338 4.0 6.0 0.00 0.62 0.62 77 1013.0
20260508171138 63 315 4.0 6.0 0.00 0.62 0.62 77 1013.2
20260508170938 64 292 3.0 6.0 0.00 0.62 0.62 77 1013.0
20260508170739 64 292 3.0 4.0 0.00 0.62 0.62 77 1013.1
20260508170542 64 270 6.0 9.0 0.00 0.62 0.62 77 1013.2
20260508170338 64 315 3.0 6.0 0.00 0.62 0.62 77 1013.1
20260508170137 64 315 8.0 11.0 0.00 0.62 0.62 76 1013.0
20260508165937 64 270 4.0 6.0 0.00 0.62 0.62 76 1012.7
20260508165338 64 292 3.0 4.0 0.00 0.62 0.62 76 1012.9
20260508165138 64 338 3.0 4.0 0.00 0.62 0.62 76 1012.6
20260508164938 64 315 4.0 7.0 0.00 0.62 0.62 75 1012.8
20260508164544 64 270 4.0 7.0 0.00 0.62 0.62 75 1012.6
20260508164338 64 315 4.0 7.0 0.00 0.62 0.62 75 1012.5
20260508164139 64 315 4.0 6.0 0.00 0.62 0.62 76 1012.5
20260508163541 64 292 7.0 11.0 0.00 0.62 0.62 75 1012.4
20260508163336 64 315 5.0 11.0 0.00 0.62 0.62 76 1012.4
20260508163138 64 315 5.0 9.0 0.00 0.62 0.62 76 1012.3
20260508162936 64 338 4.0 6.0 0.00 0.62 0.62 76 1012.5
20260508162738 64 292 7.0 11.0 0.00 0.62 0.62 76 1012.3
20260508162543 64 338 6.0 9.0 0.00 0.62 0.62 76 1012.6
20260508162337 64 292 4.0 6.0 0.00 0.62 0.62 76 1012.4
20260508161938 64 315 3.0 4.0 0.00 0.62 0.62 76 1012.4
20260508161738 64 292 5.0 8.0 0.00 0.62 0.62 76 1012.4
20260508161547 64 292 6.0 9.0 0.00 0.62 0.62 75 1012.6
20260508161338 64 270 4.0 7.0 0.00 0.62 0.62 76 1012.3
20260508161137 64 315 5.0 8.0 0.00 0.62 0.62 75 1012.4
20260508160939 64 315 4.0 9.0 0.00 0.62 0.62 75 1012.3
20260508160738 64 338 3.0 6.0 0.00 0.62 0.62 75 1012.4
20260508160541 64 292 4.0 9.0 0.00 0.62 0.62 75 1012.2
20260508160338 64 22 4.0 7.0 0.00 0.62 0.62 75 1012.2
20260508160138 64 338 4.0 6.0 0.00 0.62 0.62 75 1012.0
20260508155938 64 315 8.0 11.0 0.00 0.62 0.62 75 1012.1
20260508155739 64 338 4.0 8.0 0.00 0.62 0.62 75 1012.2
20260508155545 64 338 4.0 8.0 0.00 0.62 0.62 75 1012.1
20260508155337 64 292 5.0 8.0 0.00 0.62 0.62 75 1012.0
20260508154937 65 338 4.0 7.0 0.00 0.62 0.62 75 1012.0
20260508154738 65 292 8.0 13.0 0.00 0.62 0.62 74 1012.0
20260508154544 65 315 8.0 13.0 0.00 0.62 0.62 75 1012.1
20260508154337 65 315 4.0 6.0 0.00 0.62 0.62 75 1012.0
20260508154140 65 338 5.0 9.0 0.00 0.62 0.62 74 1011.8
20260508153739 65 292 7.0 11.0 0.00 0.62 0.62 75 1011.9
20260508153541 65 270 7.0 11.0 0.00 0.62 0.62 76 1011.8
20260508153337 65 315 6.0 11.0 0.00 0.62 0.62 76 1012.0
20260508152939 65 315 5.0 9.0 0.00 0.62 0.62 76 1011.8
20260508152544 65 338 8.0 11.0 0.00 0.62 0.62 75 1011.9
20260508152337 65 315 7.0 11.0 0.00 0.62 0.62 75 1011.8
20260508152138 65 315 5.0 11.0 0.00 0.62 0.62 76 1011.7
20260508151938 66 315 8.0 16.0 0.00 0.62 0.62 75 1011.7
20260508151739 66 315 5.0 8.0 0.00 0.62 0.62 76 1011.6
20260508151543 66 315 6.0 11.0 0.00 0.62 0.62 75 1011.9
20260508151338 67 338 7.0 13.0 0.00 0.62 0.62 75 1011.6
20260508151138 67 0 8.0 13.0 0.00 0.62 0.62 75 1011.5
20260508150941 67 270 8.0 13.0 0.00 0.62 0.62 75 1011.6
20260508150738 67 315 8.0 15.0 0.00 0.62 0.62 75 1011.7
20260508150543 66 315 6.0 11.0 0.00 0.62 0.62 76 1011.6
20260508150339 65 315 6.0 11.0 0.00 0.62 0.62 77 1011.5
20260508145938 64 315 4.0 7.0 0.00 0.62 0.62 78 1011.5
20260508145739 64 292 7.0 11.0 0.00 0.62 0.62 78 1011.7
20260508145544 64 315 7.0 11.0 0.00 0.62 0.62 78 1011.4
20260508145339 64 292 7.0 11.0 0.00 0.62 0.62 78 1011.6
20260508145138 64 315 5.0 11.0 0.00 0.62 0.62 78 1011.5
20260508144739 65 292 5.0 11.0 0.00 0.62 0.62 78 1011.5
20260508144544 65 315 5.0 9.0 0.00 0.62 0.62 78 1011.5
20260508144338 65 338 8.0 13.0 0.00 0.62 0.62 78 1011.6
20260508143939 66 270 4.0 8.0 0.00 0.62 0.62 78 1011.4
20260508143739 66 315 5.0 9.0 0.00 0.62 0.62 77 1011.3
20260508143542 66 315 4.0 8.0 0.00 0.62 0.62 76 1011.2
20260508143138 66 315 6.0 11.0 0.00 0.62 0.62 76 1011.2
20260508142939 66 292 8.0 14.0 0.00 0.62 0.62 76 1011.4
20260508142739 66 45 4.0 8.0 0.00 0.62 0.62 76 1011.4
20260508142338 66 292 4.0 11.0 0.00 0.62 0.62 76 1011.4
20260508142137 66 315 4.0 6.0 0.00 0.62 0.62 76 1011.2
20260508141337 66 292 5.0 8.0 0.00 0.62 0.62 77 1011.5
20260508140941 66 315 6.0 11.0 0.00 0.62 0.62 77 1011.4
20260508140739 65 292 5.0 9.0 0.00 0.62 0.62 77 1011.3
20260508140337 65 292 4.0 7.0 0.00 0.62 0.62 77 1011.3
20260508140138 65 292 6.0 11.0 0.00 0.62 0.62 77 1011.4
20260508135738 65 0 6.0 11.0 0.00 0.62 0.62 78 1011.4
20260508135545 65 315 6.0 8.0 0.00 0.62 0.62 78 1011.3
20260508135339 65 315 4.0 9.0 0.00 0.62 0.62 78 1011.4
20260508135138 65 315 7.0 13.0 0.00 0.62 0.62 78 1011.3
20260508134938 65 338 4.0 8.0 0.00 0.62 0.62 78 1011.3
20260508134740 65 315 4.0 7.0 0.00 0.62 0.62 78 1011.5
20260508134338 66 338 6.0 9.0 0.00 0.62 0.62 78 1011.4
20260508134138 66 315 8.0 13.0 0.00 0.62 0.62 78 1011.4
20260508133940 66 292 5.0 8.0 0.00 0.62 0.62 78 1011.2
20260508133738 66 315 5.0 8.0 0.00 0.62 0.62 78 1011.5
20260508133339 66 292 4.0 8.0 0.00 0.62 0.62 77 1011.4
20260508133138 67 292 6.0 11.0 0.00 0.62 0.62 76 1011.3
20260508132937 67 338 4.0 6.0 0.00 0.62 0.62 76 1011.1
20260508132740 67 315 7.0 13.0 0.00 0.62 0.62 75 1011.2
20260508132544 67 338 5.0 11.0 0.00 0.62 0.62 75 1011.4
20260508132338 67 292 7.0 11.0 0.00 0.62 0.62 75 1011.2
20260508132139 67 338 5.0 8.0 0.00 0.62 0.62 76 1011.2
20260508131939 67 338 5.0 8.0 0.00 0.62 0.62 76 1011.1
20260508131738 67 338 5.0 11.0 0.00 0.62 0.62 77 1011.1
20260508131545 67 315 3.0 7.0 0.00 0.62 0.62 77 1011.3
20260508131137 67 292 3.0 7.0 0.00 0.62 0.62 77 1011.2
20260508130737 67 315 3.0 6.0 0.00 0.62 0.62 77 1011.1
20260508130541 67 292 4.0 7.0 0.00 0.62 0.62 77 1011.1
20260508130338 67 292 4.0 6.0 0.00 0.62 0.62 77 1011.1
20260508130137 68 270 5.0 9.0 0.00 0.62 0.62 76 1011.1
20260508125937 68 68 4.0 6.0 0.00 0.62 0.62 76 1011.1
20260508125544 68 315 5.0 8.0 0.00 0.62 0.62 76 1011.2
20260508125337 68 315 5.0 9.0 0.00 0.62 0.62 76 1011.3
20260508125138 68 292 4.0 8.0 0.00 0.62 0.62 76 1011.1
20260508124938 68 338 4.0 8.0 0.00 0.62 0.62 76 1011.1
20260508124737 68 315 6.0 8.0 0.00 0.62 0.62 76 1011.2
20260508124337 67 292 4.0 6.0 0.00 0.62 0.62 78 1011.3
20260508124139 67 315 7.0 11.0 0.00 0.62 0.62 77 1011.2
20260508123939 67 315 7.0 11.0 0.00 0.62 0.62 77 1011.2
20260508123737 67 338 5.0 11.0 0.00 0.62 0.62 77 1011.2
20260508123541 67 292 4.0 8.0 0.00 0.62 0.62 78 1011.1
20260508123337 67 292 4.0 7.0 0.00 0.62 0.62 78 1011.3
20260508123138 67 292 4.0 6.0 0.00 0.62 0.62 78 1011.1
20260508122939 66 292 4.0 9.0 0.00 0.62 0.62 78 1011.2
20260508122738 66 0 6.0 9.0 0.00 0.62 0.62 78 1011.2
20260508122545 67 292 7.0 11.0 0.00 0.62 0.62 78 1011.2
20260508122137 67 292 6.0 9.0 0.00 0.62 0.62 79 1011.2
20260508121937 67 292 4.0 7.0 0.00 0.62 0.62 80 1011.2
20260508121738 67 315 4.0 7.0 1.07 0.62 0.62 80 1011.3
20260508121543 67 315 4.0 9.0 0.00 0.62 0.62 80 1011.2
20260508121339 67 292 5.0 9.0 0.00 0.62 0.62 80 1011.2
20260508121137 67 292 6.0 11.0 0.00 0.62 0.62 80 1011.2
20260508120737 66 338 7.0 13.0 0.00 0.62 0.62 81 1011.2
20260508120541 66 315 5.0 11.0 0.00 0.62 0.62 82 1011.3
20260508120339 66 315 5.0 11.0 0.00 0.62 0.62 82 1011.1
20260508120138 66 315 5.0 11.0 0.00 0.62 0.62 82 1011.2
20260508115937 66 292 4.0 8.0 0.00 0.62 0.62 83 1011.1
20260508115739 66 315 4.0 4.0 0.00 0.62 0.62 83 1011.1
20260508115542 66 315 5.0 8.0 0.00 0.62 0.62 83 1011.1
20260508115337 66 292 4.0 7.0 0.00 0.62 0.62 83 1011.3
20260508114547 66 315 5.0 7.0 0.00 0.62 0.62 83 1011.0
20260508114337 66 338 2.0 4.0 0.00 0.62 0.62 84 1011.1
20260508114137 66 292 4.0 6.0 0.00 0.62 0.62 84 1011.2
20260508113938 65 0 4.0 6.0 0.00 0.62 0.62 84 1011.2
20260508113737 65 292 4.0 6.0 0.00 0.62 0.62 84 1011.0
20260508113541 65 315 8.0 11.0 0.00 0.62 0.62 84 1011.2
20260508113337 65 292 5.0 8.0 0.00 0.62 0.62 84 1011.2
20260508112938 65 292 4.0 7.0 0.00 0.62 0.62 85 1011.2
20260508112737 65 292 6.0 9.0 0.00 0.62 0.62 85 1011.2
20260508112543 65 292 6.0 9.0 0.00 0.62 0.62 86 1011.2
20260508112336 64 270 4.0 7.0 0.00 0.62 0.62 87 1011.1
20260508112137 64 292 3.0 6.0 0.00 0.62 0.62 88 1011.0
20260508111937 53 292 7.0 8.0 0.00 0.00 0.00 54 1020.7
20260508111738 64 292 6.0 9.0 0.00 0.62 0.62 89 1011.1
20260508111545 64 315 4.0 7.0 0.00 0.62 0.62 90 1010.9
20260508111338 63 315 6.0 9.0 0.00 0.62 0.62 91 1010.9
20260508111137 63 292 4.0 8.0 0.00 0.62 0.62 92 1010.8
20260508110939 63 315 5.0 8.0 0.00 0.62 0.62 92 1010.9
20260508110738 63 292 3.0 4.0 0.00 0.62 0.62 93 1010.9
20260508110541 63 315 4.0 7.0 0.00 0.62 0.62 93 1011.0
20260508110337 63 338 4.0 6.0 0.00 0.62 0.62 93 1011.0
20260508110138 63 338 3.0 7.0 0.00 0.62 0.62 93 1011.0
20260508105739 63 315 2.0 6.0 0.00 0.62 0.62 93 1011.0
20260508105545 62 315 4.0 6.0 0.00 0.62 0.62 94 1011.0
20260508105338 62 315 4.0 8.0 0.00 0.62 0.62 94 1011.0
20260508105138 63 292 3.0 7.0 0.00 0.62 0.62 94 1011.2
20260508104738 62 338 4.0 7.0 0.00 0.62 0.62 94 1011.1
20260508104545 62 292 4.0 7.0 0.00 0.62 0.62 94 1011.0
20260508104337 62 338 3.0 4.0 0.00 0.62 0.62 94 1011.0
20260508104139 62 338 4.0 8.0 0.00 0.62 0.62 94 1011.0
20260508103940 62 315 4.0 6.0 0.00 0.62 0.62 94 1011.1
20260508103541 62 338 4.0 6.0 0.00 0.62 0.62 94 1011.3
20260508103337 63 22 2.0 4.0 0.00 0.62 0.62 94 1011.2
20260508103138 62 292 2.0 4.0 0.00 0.62 0.62 94 1011.1
20260508102937 62 45 2.0 4.0 0.00 0.62 0.62 94 1011.2
20260508102738 63 315 2.0 4.0 0.00 0.62 0.62 94 1011.3
20260508102543 63 315 2.0 4.0 0.00 0.62 0.62 95 1011.2
20260508102338 62 315 3.0 4.0 0.00 0.62 0.62 95 1011.3
20260508102137 62 292 2.0 4.0 0.00 0.62 0.62 95 1011.4
20260508101738 62 22 6.0 11.0 0.00 0.62 0.62 95 1011.4
20260508101543 62 315 6.0 9.0 0.00 0.62 0.62 95 1011.4
20260508101337 63 315 6.0 11.0 0.00 0.62 0.62 95 1011.5
20260508101138 63 0 3.0 4.0 0.01 0.62 0.62 95 1011.3
20260508100939 63 315 6.0 8.0 0.01 0.62 0.62 95 1011.5
20260508100738 63 315 3.0 7.0 0.01 0.62 0.62 95 1011.4
20260508100541 63 315 3.0 8.0 0.01 0.62 0.62 95 1011.3
20260508100338 63 315 3.0 6.0 0.01 0.62 0.62 95 1011.2
20260508100137 63 315 4.0 7.0 0.02 0.62 0.62 95 1011.4
20260508095939 63 338 3.0 7.0 0.02 0.62 0.62 95 1011.2
20260508095738 63 315 2.0 6.0 0.02 0.62 0.62 95 1011.5
20260508095544 62 315 4.0 6.0 0.02 0.62 0.62 95 1011.3
20260508095337 62 292 4.0 7.0 0.03 0.62 0.62 95 1011.4
20260508094937 62 0 4.0 11.0 0.03 0.62 0.62 95 1011.2
20260508094739 62 338 5.0 8.0 0.03 0.62 0.62 95 1011.3
20260508094545 62 315 6.0 9.0 0.04 0.62 0.62 95 1011.2
20260508094338 62 315 4.0 8.0 0.04 0.62 0.62 95 1011.3
20260508094137 62 292 5.0 8.0 0.04 0.62 0.62 95 1011.4
20260508093737 62 315 5.0 8.0 0.05 0.62 0.62 95 1011.3
20260508093541 62 292 4.0 7.0 0.05 0.62 0.62 95 1011.3
20260508093337 62 292 5.0 7.0 0.05 0.62 0.62 95 1011.2
20260508093137 61 315 3.0 6.0 0.05 0.62 0.62 95 1011.3
20260508092737 61 292 4.0 6.0 0.07 0.62 0.62 95 1011.5
20260508092543 61 315 3.0 4.0 0.08 0.62 0.62 95 1011.3
20260508092337 61 315 2.0 4.0 0.08 0.62 0.62 95 1011.2
20260508092138 61 338 4.0 6.0 0.09 0.62 0.62 95 1011.3
20260508091938 60 292 2.0 4.0 0.09 0.62 0.62 95 1011.3
20260508091737 60 338 3.0 6.0 0.09 0.62 0.62 95 1011.3
20260508091543 61 315 4.0 6.0 0.09 0.62 0.62 95 1011.6
20260508091338 61 338 2.0 4.0 0.09 0.61 0.61 95 1011.3
20260508091137 61 292 1.0 2.0 0.09 0.61 0.61 95 1011.3
20260508090939 60 315 2.0 2.0 0.10 0.61 0.61 95 1011.5
20260508090541 60 292 3.0 4.0 0.11 0.61 0.61 95 1011.4
20260508090137 60 292 2.0 4.0 0.11 0.60 0.60 95 1011.4
20260508085937 60 315 2.0 4.0 0.11 0.60 0.60 95 1011.6
20260508085337 60 292 4.0 7.0 0.12 0.59 0.59 95 1011.3
20260508085138 60 292 2.0 4.0 0.14 0.59 0.59 95 1011.5
20260508084937 60 292 3.0 4.0 0.15 0.59 0.59 95 1011.5
20260508084738 60 315 2.0 4.0 0.14 0.57 0.57 95 1011.4
20260508084543 60 315 4.0 4.0 0.16 0.57 0.57 95 1011.4
20260508084337 60 315 2.0 4.0 0.16 0.57 0.57 95 1011.5
20260508084138 60 315 2.0 2.0 0.17 0.57 0.57 95 1011.5
20260508083938 60 315 3.0 4.0 0.17 0.56 0.56 95 1011.4
20260508083543 60 292 5.0 8.0 0.20 0.56 0.56 95 1011.6
20260508083337 60 292 4.0 6.0 0.21 0.56 0.56 95 1011.6
20260508083137 60 292 4.0 6.0 0.23 0.55 0.55 95 1011.4
20260508082938 60 270 2.0 4.0 0.24 0.55 0.55 95 1011.5
20260508082737 60 315 4.0 6.0 0.23 0.54 0.54 95 1011.4
20260508082544 60 292 4.0 7.0 0.23 0.54 0.54 95 1011.5
20260508082337 60 292 2.0 2.0 0.23 0.53 0.53 95 1011.4
20260508081938 60 315 2.0 2.0 0.24 0.53 0.53 95 1011.3
20260508081738 60 315 2.0 4.0 0.98 0.53 0.53 95 1011.4
20260508081337 60 315 1.0 2.0 0.28 0.51 0.51 95 1011.2
20260508081138 60 315 2.0 4.0 0.28 0.50 0.50 95 1011.3
20260508080939 60 292 2.0 2.0 0.29 0.49 0.49 95 1011.1
20260508080737 60 315 2.0 4.0 0.30 0.49 0.49 95 1011.1
20260508080542 60 292 2.0 4.0 0.29 0.48 0.48 95 1011.3
20260508080337 60 292 2.0 4.0 0.30 0.48 0.48 95 1011.3
20260508080137 60 292 2.0 4.0 0.30 0.48 0.48 95 1011.3
20260508075937 60 292 2.0 4.0 0.29 0.47 0.47 95 1011.2
20260508075739 60 292 2.0 4.0 0.30 0.47 0.47 95 1011.3
20260508075544 60 292 2.0 4.0 0.29 0.46 0.46 95 1011.3
20260508075336 60 315 2.0 4.0 0.29 0.44 0.44 95 1011.2
20260508075137 60 315 2.0 4.0 0.28 0.43 0.43 95 1011.2
20260508074939 60 315 3.0 6.0 0.29 0.43 0.43 95 1011.1
20260508074740 60 315 2.0 2.0 0.27 0.41 0.41 95 1011.2
20260508074543 60 315 2.0 4.0 0.28 0.41 0.41 95 1011.0
20260508074139 60 22 2.0 4.0 0.27 0.38 0.38 95 1011.1
20260508073940 60 338 2.0 4.0 0.25 0.37 0.37 95 1010.9
20260508073738 60 0 2.0 4.0 0.25 0.36 0.36 95 1011.0
20260508073542 60 338 1.0 2.0 0.24 0.35 0.35 95 1011.0
20260508073137 60 315 2.0 2.0 0.20 0.30 0.30 95 1011.1
20260508072938 60 315 2.0 4.0 0.20 0.30 0.30 95 1011.1
20260508072737 60 315 2.0 2.0 0.20 0.30 0.30 95 1011.0
20260508072544 60 315 2.0 2.0 0.20 0.29 0.29 95 1011.2
20260508072337 60 292 2.0 4.0 0.18 0.28 0.28 95 1011.0
20260508072137 60 315 2.0 4.0 0.18 0.28 0.28 95 1011.0
20260508071738 60 292 1.0 2.0 0.15 0.24 0.24 94 1010.9
20260508071544 60 0 1.0 4.0 0.14 0.23 0.23 94 1011.0
20260508071136 60 45 2.0 4.0 0.10 0.20 0.20 94 1011.1
20260508070939 60 338 2.0 4.0 0.10 0.18 0.18 94 1010.9
20260508070337 60 0 1.0 4.0 0.09 0.17 0.17 94 1010.9
20260508070137 60 315 1.0 2.0 0.09 0.17 0.17 94 1010.7
20260508065937 60 292 2.0 2.0 0.08 0.16 0.16 94 1010.9
20260508065738 60 45 2.0 4.0 0.08 0.16 0.16 94 1010.9
20260508065545 60 68 2.0 2.0 0.07 0.15 0.15 94 1010.9
20260508065336 60 338 2.0 4.0 0.08 0.15 0.15 94 1010.9
20260508065138 60 45 3.0 6.0 0.07 0.14 0.14 94 1010.9
20260508064938 60 22 3.0 6.0 0.07 0.14 0.14 94 1010.8
20260508064737 60 338 3.0 7.0 0.05 0.12 0.12 94 1010.8
20260508064543 60 0 2.0 4.0 0.07 0.12 0.12 94 1010.8
20260508064337 60 90 2.0 4.0 0.05 0.11 0.11 94 1010.8
20260508063939 60 292 2.0 4.0 0.05 0.10 0.10 94 1010.8
20260508063737 60 0 4.0 7.0 0.05 0.10 0.10 94 1010.8
20260508063542 61 45 4.0 7.0 0.05 0.10 0.10 94 1010.7
20260508063337 61 0 2.0 4.0 0.05 0.10 0.10 94 1010.7
20260508063136 61 338 2.0 4.0 0.05 0.10 0.10 94 1010.7
20260508062937 61 22 4.0 6.0 0.05 0.10 0.10 94 1010.9
20260508062738 61 0 2.0 2.0 0.04 0.09 0.09 94 1010.8
20260508062545 61 45 4.0 6.0 0.04 0.09 0.09 94 1010.7
20260508062336 61 292 2.0 4.0 0.04 0.09 0.09 94 1010.8
20260508061937 61 338 2.0 4.0 0.04 0.09 0.09 94 1010.6
20260508061739 61 22 2.0 4.0 0.04 0.09 0.09 94 1010.6
20260508061543 61 315 1.0 2.0 0.04 0.09 0.09 94 1010.7
20260508061337 61 338 1.0 2.0 0.04 0.09 0.09 94 1010.8
20260508061137 61 45 4.0 4.0 0.03 0.08 0.08 94 1010.7
20260508060737 61 315 1.0 2.0 0.03 0.08 0.08 94 1010.7
20260508060540 61 0 1.0 2.0 0.03 0.08 0.08 94 1010.8
20260508060336 61 0 1.0 2.0 0.03 0.08 0.08 94 1010.7
20260508060137 61 0 1.0 2.0 0.03 0.08 0.08 94 1010.7
20260508055737 61 45 1.0 4.0 0.03 0.08 0.08 94 1010.7
20260508055545 61 0 1.0 2.0 0.02 0.07 0.07 94 1010.8
20260508055349 61 22 2.0 4.0 0.02 0.07 0.07 94 1010.8
20260508055138 61 315 2.0 2.0 0.02 0.07 0.07 94 1010.7
20260508054940 61 270 2.0 4.0 0.02 0.07 0.07 94 1010.6
20260508054742 61 22 1.0 2.0 0.01 0.05 0.05 94 1010.7
20260508054544 61 338 0.0 2.0 0.01 0.05 0.05 94 1010.6
20260508054337 61 315 1.0 2.0 0.00 0.04 0.04 94 1010.6
20260508054138 61 338 1.0 2.0 0.00 0.04 0.04 94 1010.5
20260508053939 61 315 2.0 2.0 0.00 0.04 0.04 94 1010.6
20260508053738 61 0 0.0 2.0 0.00 0.04 0.04 94 1010.5
20260508053540 61 315 1.0 2.0 0.00 0.04 0.04 94 1010.7
20260508053337 61 338 2.0 4.0 0.00 0.04 0.04 94 1010.6
20260508053138 61 0 2.0 2.0 0.00 0.04 0.04 94 1010.3
20260508052938 62 22 1.0 2.0 0.00 0.04 0.04 94 1010.5
20260508052737 62 338 1.0 2.0 0.00 0.04 0.04 94 1010.7
20260508052544 62 338 1.0 4.0 0.00 0.04 0.04 94 1010.3
20260508052337 62 0 1.0 2.0 0.00 0.04 0.04 94 1010.4
20260508052139 62 0 1.0 2.0 0.00 0.04 0.04 94 1010.4
20260508051938 62 22 2.0 2.0 0.01 0.04 0.04 94 1010.3
20260508051738 62 22 3.0 4.0 0.49 0.04 0.04 94 1010.4
20260508051543 62 22 0.0 2.0 0.01 0.04 0.04 94 1010.5
20260508051337 62 0 1.0 2.0 0.01 0.04 0.04 94 1010.4
20260508051140 62 45 1.0 2.0 0.01 0.04 0.04 94 1010.5
20260508050939 62 338 2.0 2.0 0.02 0.04 0.04 93 1010.4
20260508050737 62 45 3.0 4.0 0.02 0.04 0.04 93 1010.4
20260508050543 61 22 2.0 4.0 0.02 0.04 0.04 93 1010.3
20260508050339 61 45 2.0 2.0 0.02 0.04 0.04 93 1010.3
20260508050138 62 22 2.0 2.0 0.02 0.04 0.04 93 1010.4
20260508045338 62 22 2.0 2.0 0.02 0.04 0.04 93 1010.4
20260508045137 62 68 2.0 4.0 0.02 0.04 0.04 93 1010.5
20260508044938 62 68 2.0 2.0 0.02 0.04 0.04 93 1010.4
20260508044737 62 45 2.0 4.0 0.02 0.04 0.04 93 1010.3
20260508044545 62 45 2.0 2.0 0.02 0.04 0.04 93 1010.4
20260508044338 62 68 2.0 4.0 0.02 0.04 0.04 93 1010.3
20260508044141 61 68 2.0 4.0 0.02 0.04 0.04 93 1010.4
20260508043939 61 68 2.0 4.0 0.02 0.04 0.04 93 1010.4
20260508043738 61 22 2.0 2.0 0.02 0.04 0.04 93 1010.2
20260508043540 61 68 2.0 4.0 0.03 0.04 0.04 93 1010.3
20260508043338 61 22 2.0 4.0 0.03 0.04 0.04 93 1010.3
20260508043137 61 45 2.0 2.0 0.03 0.04 0.04 93 1010.3
20260508042736 61 45 4.0 4.0 0.03 0.04 0.04 93 1010.2
20260508042549 61 68 4.0 7.0 0.03 0.04 0.04 93 1010.3
20260508042338 61 68 4.0 6.0 0.03 0.04 0.04 93 1010.3
20260508042138 61 90 4.0 6.0 0.02 0.03 0.03 93 1010.1
20260508041739 62 45 3.0 4.0 0.02 0.03 0.03 93 1010.4
20260508041546 62 90 2.0 4.0 0.02 0.03 0.03 93 1010.1
20260508041346 62 68 2.0 4.0 0.02 0.03 0.03 93 1010.4
20260508041137 62 68 3.0 4.0 0.02 0.02 0.02 93 1010.2
20260508040939 62 45 4.0 6.0 0.02 0.02 0.02 93 1010.4
20260508040738 62 90 4.0 8.0 0.02 0.02 0.02 93 1010.1
20260508040541 62 68 2.0 4.0 0.02 0.02 0.02 93 1010.3
20260508040336 62 68 3.0 6.0 0.02 0.02 0.02 93 1010.3
20260508035737 62 68 3.0 6.0 0.02 0.02 0.02 92 1010.2
20260508035545 62 68 2.0 4.0 0.02 0.02 0.02 92 1010.0
20260508035138 62 90 3.0 4.0 0.02 0.02 0.02 92 1010.1
20260508034937 62 112 3.0 6.0 0.02 0.02 0.02 92 1010.1
20260508034737 62 45 4.0 6.0 0.47 0.02 0.02 92 1010.1
20260508034544 62 90 2.0 4.0 0.02 0.02 0.02 92 1010.0
20260508034338 62 90 4.0 6.0 0.02 0.02 0.02 92 1010.3
20260508034137 62 90 3.0 4.0 0.02 0.02 0.02 92 1010.3
20260508033738 62 68 4.0 7.0 0.01 0.01 0.01 92 1010.2
20260508033540 62 90 4.0 7.0 0.01 0.01 0.01 91 1010.0
20260508033338 62 68 4.0 7.0 0.01 0.01 0.01 91 1010.1
20260508033137 63 68 4.0 6.0 0.01 0.01 0.01 91 1010.0
20260508032739 63 68 4.0 6.0 0.01 0.01 0.01 91 1010.2
20260508032544 63 68 3.0 4.0 0.01 0.01 0.01 91 1010.0